Back to catalog

THOR ABLESTAR DEB

AliveLEO
NORAD 324·DEBRIS·🇺🇸 United States

Launched Jun 29, 1961 from Cape Canaveral Space Force Station

Loading…

Next Passes (next 24 hours)

TLE

FreshSource: Space-Track

Epoch: Sep 14, 2026, 03:39 UTC

1 00324U 61015DA  26257.15275293  .00000470  00000-0  28571-3 0  9995
2 00324  66.8699 166.1015 0071522 317.3332  42.2217 14.13475534335640

Track THOR ABLESTAR DEB in real time with AllMySat

Download on the App Store